Content
SEND FEEDBACK

Daily
Averages
Monthly
Summary
United States of America

HAZELWOOD, MISSOURI


Home > North America > United States > Missouri
Elevation: 570 feet     Latitude: 38 45N     Longitude: 090 22W

WEATHER
 
SELECT A DAY
Number of Records: 196,446;   Date Range: 1/1/95 - 8/12/14
 
SHARE

PRINT THIS DATA

[ ← Previous Day ]
WEATHER ALMANAC - JANUARY 31, 2013
[ Next Day → ]
[ °C ]   °F
Weather ElementAverageHighLow
Temperature25 °F33.8 °F (1:09 pm)10.9 °F (11:54 pm)
Dewpoint13.3 °F24.8 °F (2:11 pm)-2.9 °F (11:54 pm)
Humidity61.1 %86 % (2:41 pm)51 % (8:54 pm)
Barometer30.11 in30.44 in (11:54 pm)29.95 in (2:20 am)
Wind Speed15.7 mph25.3 mph (4:54 pm)
Wind Gust31.1 mph (2:54 pm)
Weather ElementAverage
Visibility8.9 mi
Wind DirectionWNW (277 °)

Weather ElementTotal
Precipitation---
Heating Degree Days42.7 (Base 65)
Averaged from 27 records on January 31, 2013
WEATHER CONDITIONS BREAKOUT
WIND DIRECTION BREAKOUT
WEATHER BY HOUR - JANUARY 31, 2013
[ °C ]   °F
Local TimeTemperatureDewpointHumidityBarometerVisibilityWind DirectionWind SpeedGust SpeedPrecipitationEventsConditions
1:54 AM27.0 °F16.0 °F63 %29.98 in10.0 miWest (270°)11.5 mphOvercast
2:20 AM26.6 °F17.6 °F69 %29.95 in10.0 miWest (270°)11.5 mphOvercast
2:54 AM28.0 °F16.0 °F61 %29.98 in10.0 miWest (270°)11.5 mph24.2 mphOvercast
3:03 AM28.4 °F15.8 °F59 %29.95 in10.0 miWest (280°)15.0 mph24.2 mphOvercast
3:54 AM27.0 °F16.0 °F63 %29.97 in10.0 miWest (270°)11.5 mph19.6 mphOvercast
4:54 AM27.0 °F17.1 °F66 %29.97 in10.0 miWest (270°)9.2 mphOvercast
5:54 AM27.0 °F15.1 °F61 %29.99 in10.0 miWSW (250°)13.8 mphOvercast
6:54 AM27.0 °F16.0 °F63 %30.01 in10.0 miWSW (250°)12.7 mphOvercast
7:54 AM27.0 °F16.0 °F63 %30.02 in10.0 miWSW (240°)12.7 mphOvercast
8:54 AM28.0 °F17.1 °F63 %30.04 in10.0 miWSW (240°)11.5 mphOvercast
9:54 AM28.9 °F17.1 °F61 %30.06 in10.0 miWSW (250°)15.0 mph21.9 mphOvercast
10:54 AM30.9 °F19.0 °F61 %30.06 in10.0 miWest (260°)15.0 mph21.9 mphOvercast
11:54 AM32.0 °F19.0 °F59 %30.06 in10.0 miWest (260°)13.8 mphOvercast
12:54 PM33.1 °F19.0 °F56 %30.03 in10.0 miWest (260°)11.5 mph23.0 mphOvercast
1:09 PM33.8 °F19.4 °F56 %30.01 in3.0 miWNW (300°)18.4 mph24.2 mph0.00 inSnowSnow
2:11 PM30.2 °F24.8 °F80 %30.04 in0.8 miWest (280°)12.7 mph0.00 inSnowLight Snow
2:41 PM28.4 °F24.8 °F86 %30.05 in3.0 miWest (280°)8.1 mph0.00 inSnowLight Snow
2:54 PM30.0 °F18.0 °F61 %30.08 in3.0 miWest (260°)21.9 mph31.1 mph0.00 inHaze
3:54 PM27.0 °F14.0 °F58 %30.13 in10.0 miNW (320°)23.0 mph31.1 mphMostly Cloudy
4:54 PM21.9 °F9.0 °F58 %30.20 in10.0 miWNW (300°)25.3 mph31.1 mphMostly Cloudy
5:54 PM19.0 °F5.0 °F54 %30.24 in10.0 miWNW (300°)23.0 mph27.6 mphScattered Clouds
6:54 PM18.0 °F5.0 °F57 %30.27 in10.0 miWNW (300°)21.9 mph27.6 mphScattered Clouds
7:54 PM17.1 °F5.0 °F59 %30.31 in10.0 miWNW (300°)17.3 mph28.8 mphOvercast
8:54 PM15.1 °F0.0 °F51 %30.35 in10.0 miWNW (300°)23.0 mph29.9 mphScattered Clouds
9:54 PM14.0 °F0.0 °F54 %30.40 in10.0 miWNW (300°)18.4 mph27.6 mphClear
10:54 PM12.9 °F-0.9 °F54 %30.43 in10.0 miWNW (300°)17.3 mph25.3 mphClear
11:54 PM10.9 °F-2.9 °F54 %30.44 in10.0 miWNW (300°)17.3 mphClear
Hourly data recorded from KSUS, located miles away from Hazelwood, Missouri







STORIES FROM OUR PARTNERS